KA1WBH Weather Reports


Display with metric or nautical units.
time (UTC)temp
F
wind
direction
speed
MPH
gust
MPH
rain 1hr
in
rain 24hr
in
rain mn
in
humidity
%
barometer
mb
20171213150202 25 289 3.0 30.0 0.00 0.35 0.00 65 993.5
20171213145202 25 296 17.0 33.0 0.00 0.35 0.00 61 993.3
20171213144202 26 279 12.0 29.0 0.00 0.35 0.00 62 993.3
20171213143202 25 291 15.0 30.0 0.00 0.35 0.00 64 993.3
20171213142202 25 273 14.0 29.0 0.00 0.35 0.00 64 993.4
20171213141202 24 297 10.0 25.0 0.00 0.35 0.00 64 993.4
20171213140201 24 260 16.0 31.0 0.00 0.35 0.00 66 993.1
20171213135202 24 268 11.0 31.0 0.00 0.35 0.00 65 993.2
20171213134201 24 273 12.0 30.0 0.00 0.35 0.00 66 993.1
20171213133201 23 291 16.0 24.0 0.00 0.35 0.00 66 993.0
20171213132202 23 297 10.0 26.0 0.00 0.35 0.00 64 992.9
20171213131202 23 308 16.0 25.0 0.00 0.35 0.00 66 992.9
20171213130201 23 275 16.0 26.0 0.00 0.35 0.00 65 992.7
20171213125201 23 268 13.0 21.0 0.00 0.35 0.00 66 992.6
20171213124202 24 277 12.0 22.0 0.00 0.35 0.00 66 992.5
20171213123201 24 286 15.0 23.0 0.00 0.35 0.00 66 992.4
20171213122201 24 262 10.0 23.0 0.00 0.35 0.00 66 992.3
20171213121201 24 259 19.0 20.0 0.00 0.35 0.00 69 992.2
20171213120201 24 345 13.0 21.0 0.00 0.35 0.00 65 992.3
20171213115201 25 241 12.0 26.0 0.00 0.35 0.00 66 992.2
20171213114201 25 321 6.0 20.0 0.00 0.35 0.00 66 992.2
20171213113201 25 307 1.0 18.0 0.00 0.35 0.00 66 992.2
20171213112201 25 303 7.0 20.0 0.00 0.35 0.00 65 992.2
20171213111201 26 287 6.0 22.0 0.00 0.35 0.00 66 992.1
20171213110201 26 282 3.0 23.0 0.00 0.35 0.00 65 992.0
20171213105201 26 320 6.0 20.0 0.00 0.35 0.00 65 992.0
20171213104201 26 311 9.0 19.0 0.00 0.35 0.00 67 992.1
20171213103202 27 293 7.0 19.0 0.00 0.35 0.00 69 991.8
20171213102201 27 351 6.0 24.0 0.00 0.35 0.00 68 991.8
20171213101201 28 262 10.0 19.0 0.00 0.35 0.00 68 991.7
20171213100201 28 277 5.0 21.0 0.00 0.35 0.00 69 991.4
20171213095201 28 290 21.0 25.0 0.00 0.35 0.00 68 991.3
20171213094201 28 269 7.0 19.0 0.00 0.35 0.00 70 991.2
20171213093201 29 311 10.0 19.0 0.00 0.35 0.00 71 991.3
20171213092201 29 270 9.0 24.0 0.00 0.35 0.00 69 991.0
20171213091201 29 261 1.0 25.0 0.00 0.35 0.00 73 990.9
20171213090201 30 318 12.0 21.0 0.00 0.35 0.00 76 990.2
20171213085201 30 314 8.0 20.0 0.00 0.35 0.00 77 989.9
20171213083201 31 304 11.0 22.0 0.00 0.35 0.00 78 989.9
20171213082201 31 323 9.0 18.0 0.00 0.35 0.00 79 989.7
20171213081201 31 262 15.0 20.0 0.00 0.35 0.00 80 989.7
20171213080201 32 312 11.0 24.0 0.00 0.35 0.00 80 990.4
20171213075201 32 303 10.0 18.0 0.00 0.35 0.00 80 990.8
20171213074201 33 268 9.0 18.0 0.00 0.35 0.00 80 991.4
20171213073201 33 281 5.0 21.0 0.00 0.35 0.00 80 991.6
20171213072201 34 272 12.0 19.0 0.00 0.35 0.00 80 991.2
20171213071201 34 295 9.0 17.0 0.00 0.35 0.00 83 991.3
20171213070201 35 287 5.0 20.0 0.00 0.35 0.00 82 991.3
20171213065201 35 324 2.0 21.0 0.00 0.35 0.00 81 991.4
20171213064201 36 282 4.0 22.0 0.00 0.35 0.00 83 990.9
20171213063201 36 269 4.0 17.0 0.00 0.35 0.00 84 990.7
20171213062201 36 308 6.0 14.0 0.00 0.35 0.00 87 990.8
20171213061201 36 295 4.0 13.0 0.00 0.35 0.00 86 990.9
20171213060201 36 293 2.0 14.0 0.00 0.35 0.00 85 990.5
20171213055201 36 352 3.0 13.0 0.00 0.35 0.00 84 989.8
20171213054201 37 324 3.0 20.0 0.00 0.35 0.00 84 989.9
20171213053201 37 309 7.0 18.0 0.00 0.35 0.00 83 990.2
20171213052201 37 300 10.0 15.0 0.00 0.35 0.00 85 990.5
20171213051201 37 292 3.0 16.0 0.00 0.35 0.00 85 991.0
20171213050201 38 306 1.0 14.0 0.00 0.35 0.00 86 991.2
20171213045201 38 300 14.0 16.0 0.00 0.35 0.35 86 990.9
20171213044201 38 281 5.0 16.0 0.00 0.35 0.35 87 990.9
20171213043201 38 304 6.0 14.0 0.00 0.35 0.35 87 990.9
20171213042201 39 313 11.0 15.0 0.00 0.35 0.35 87 991.1
20171213041201 39 314 12.0 14.0 0.00 0.35 0.35 88 991.3
20171213040201 39 274 7.0 19.0 0.00 0.35 0.35 88 991.8
20171213035201 39 281 5.0 18.0 0.00 0.35 0.35 89 991.3
20171213034201 39 312 5.0 15.0 0.00 0.35 0.35 90 991.5
20171213033201 40 252 6.0 16.0 0.00 0.35 0.35 91 991.5
20171213032202 40 295 4.0 14.0 0.00 0.35 0.35 91 991.6
20171213031201 40 287 6.0 12.0 0.00 0.35 0.35 92 991.3
20171213030201 40 300 0.0 12.0 0.00 0.35 0.35 92 991.3
20171213025201 40 314 1.0 13.0 0.00 0.35 0.35 92 991.3
20171213024201 41 301 5.0 14.0 0.00 0.35 0.35 92 991.2
20171213023201 41 283 1.0 11.0 0.00 0.35 0.35 92 991.3
20171213022201 41 300 4.0 12.0 0.00 0.35 0.35 92 991.4
20171213021201 42 293 7.0 10.0 0.00 0.35 0.35 93 991.7
20171213020201 42 282 2.0 12.0 0.00 0.35 0.35 93 991.8
20171213015201 43 297 3.0 13.0 0.00 0.35 0.35 93 991.8
20171213014201 44 276 0.0 9.0 0.00 0.35 0.35 93 991.7
20171213013201 44 300 6.0 7.0 0.00 0.35 0.35 94 991.3
20171213012201 45 322 4.0 11.0 0.00 0.35 0.35 94 991.0
20171213011201 45 309 3.0 11.0 0.00 0.35 0.35 95 991.2
20171213010201 46 316 0.0 10.0 0.00 0.35 0.35 94 991.5
20171213005201 47 313 3.0 12.0 0.00 0.35 0.35 95 991.7
20171213004201 48 275 2.0 7.0 0.00 0.35 0.35 96 991.8
20171213003201 48 256 3.0 8.0 0.00 0.35 0.35 96 991.8
20171213002201 48 251 4.0 10.0 0.00 0.35 0.35 97 991.9
20171213001201 48 244 1.0 5.0 0.00 0.35 0.35 97 992.0
20171213000201 48 229 3.0 3.0 0.00 0.35 0.35 96 992.2
20171212235201 48 229 0.0 4.0 0.00 0.35 0.35 96 992.1
20171212234201 49 231 1.0 6.0 0.00 0.35 0.35 96 992.1
20171212233201 49 218 0.0 4.0 0.00 0.35 0.35 96 992.0
20171212232201 49 202 0.0 4.0 0.00 0.35 0.35 97 992.2
20171212231201 49 214 2.0 3.0 0.00 0.35 0.35 98 992.4
20171212230201 48 210 0.0 2.0 0.00 0.35 0.35 98 992.4
20171212225201 48 210 0.0 1.0 0.00 0.35 0.35 97 992.8
20171212224201 47 210 0.0 0.0 0.01 0.35 0.35 97 992.9
20171212223201 47 209 0.0 0.0 0.01 0.35 0.35 96 992.8
20171212222201 47 209 0.0 0.0 0.01 0.35 0.35 96 993.0
20171212221201 47 209 0.0 0.0 0.01 0.35 0.35 96 993.1
20171212220201 47 212 0.0 0.0 0.05 0.35 0.35 96 993.4
20171212215201 48 273 0.0 0.0 0.11 0.35 0.35 96 993.6
20171212214201 48 278 0.0 0.0 0.23 0.34 0.34 96 993.9
20171212213201 48 278 0.0 0.0 0.24 0.34 0.34 96 994.0
20171212212201 48 279 0.0 0.0 0.25 0.34 0.34 95 994.2
20171212211201 48 278 0.0 7.0 0.27 0.34 0.34 95 994.6
20171212210201 49 266 2.0 9.0 0.24 0.30 0.30 96 994.8
20171212205201 48 166 0.0 14.0 0.18 0.24 0.24 97 995.0
20171212204201 47 304 0.0 2.0 0.05 0.11 0.11 95 995.1
20171212203201 47 317 0.0 0.0 0.04 0.10 0.10 95 995.2
20171212202201 47 316 0.0 13.0 0.04 0.09 0.09 95 995.7
20171212201201 47 150 2.0 14.0 0.04 0.07 0.07 94 995.0
20171212200201 47 110 6.0 14.0 0.05 0.06 0.06 93 995.2
20171212195201 47 119 12.0 15.0 0.05 0.06 0.06 93 995.5
20171212194201 47 138 4.0 13.0 0.05 0.06 0.06 93 995.7
20171212193200 47 114 0.0 8.0 0.05 0.06 0.06 92 996.1
20171212192201 47 137 0.0 10.0 0.04 0.05 0.05 92 996.7
20171212191200 48 116 4.0 9.0 0.02 0.03 0.03 91 997.2
20171212190201 48 129 2.0 10.0 0.00 0.01 0.01 89 997.6
20171212185200 48 145 0.0 9.0 0.00 0.01 0.01 88 997.8
20171212184200 48 117 0.0 7.0 0.00 0.01 0.01 87 998.1
20171212183201 48 175 5.0 10.0 0.00 0.01 0.01 86 998.3
20171212182200 48 121 0.0 11.0 0.00 0.01 0.01 86 998.6
20171212181200 48 129 0.0 11.0 0.00 0.01 0.01 85 999.0
20171212180200 48 132 1.0 10.0 0.00 0.01 0.01 85 999.7
20171212175201 48 137 3.0 11.0 0.00 0.01 0.01 85 999.8
20171212174200 48 108 5.0 14.0 0.00 0.01 0.01 85 1000.3
20171212173200 48 154 0.0 13.0 0.00 0.01 0.01 85 1000.7
20171212172201 48 155 2.0 15.0 0.00 0.01 0.01 85 1000.6
20171212171200 49 145 0.0 13.0 0.00 0.01 0.01 81 1000.8
20171212170200 49 147 1.0 12.0 0.01 0.01 0.01 81 1001.3
20171212165200 49 134 6.0 15.0 0.01 0.01 0.01 80 1001.6
20171212164200 48 154 7.0 13.0 0.01 0.01 0.01 82 1001.8
20171212163200 48 154 0.0 13.0 0.01 0.01 0.01 82 1002.0
20171212162200 48 177 6.0 17.0 0.01 0.01 0.01 83 1002.4
20171212161200 48 171 2.0 15.0 0.01 0.01 0.01 82 1003.0
20171212160200 48 171 1.0 15.0 0.00 0.00 0.00 80 1003.6
20171212155200 48 181 9.0 17.0 0.00 0.00 0.00 78 1004.0
20171212154200 47 169 6.0 15.0 0.00 0.00 0.00 79 1004.3
20171212153200 46 121 3.0 10.0 0.00 0.00 0.00 82 1004.9
20171212152200 46 137 0.0 9.0 0.00 0.00 0.00 83 1005.2
20171212151200 46 150 4.0 11.0 0.00 0.00 0.00 83 1005.5